Lone Rock, WI

3:53 PM CDT on September 20, 2019 (GMT -0500)
Tri-County Regional

Weather History for KLNR - August, 2019

Change the Weather History Date:

Sunday, August 18, 2019

  Actual Average Record
Temperature  
Mean Temperature 72 °F -  
Max Temperature 79 °F 78 °F 91 °F (2003)
Min Temperature 64 °F 57 °F 44 °F (2012)
Cooling Degree Days 6    
Growing Degree Days 22 (Base 50)    
Moisture  
Dew Point 64 °F    
Average Humidity 84    
Maximum Humidity 97    
Minimum Humidity 58    
Precipitation  
Precipitation 0.10 in - - ()
Sea Level Pressure  
Sea Level Pressure 29.77 in    
Wind  
Wind Speed 8 mph (WSW)    
Max Wind Speed 20 mph    
Max Gust Speed 32 mph    
Visibility 9 miles    
Events Rain , Thunderstorm    
Averages and records for this station are not official NWS values.
T = Trace of Precipitation, MM = Missing Value Source: NWS Daily Summary

Daily Weather History Graph

Daily Weather History Graph

Search for Another Location

Airport or City:

Astronomy

Aug. 18, 2019 Rise Set
Actual Time 6:09 AM CDT 7:59 PM CDT
Civil Twilight 5:38 AM CDT 8:29 PM CDT
Nautical Twilight 5:01 AM CDT 9:06 PM CDT
Astronomical Twilight 4:21 AM CDT 9:46 PM CDT
Moon 9:49 PM CDT (8/18) 8:57 AM CDT (8/18)
Length of Visible Light 14h 50m
Length of Day
13h 49m
Waning Gibbous, 91% of the Moon is Illuminated
Aug 18
Waning Gibbous
Aug 23
Last Quarter
Aug 30
New
Sep 5
First Quarter
Sep 13
Full

Hourly Weather History & Observations

Time (CDT) Temp. Dew Point Humidity Pressure Visibility Wind Dir Wind Speed Gust Speed Precip Events Conditions
12:56 AM 66.9 °F 66.0 °F 97% 29.81 in 9.0 mi Calm Calm - N/A   Partly Cloudy
1:56 AM 71.1 °F 66.9 °F 87% 29.79 in 10.0 mi WSW 9.2 mph - N/A   Clear
2:56 AM 70.0 °F 66.9 °F 90% 29.73 in 10.0 mi East 3.5 mph - 0.01 in   Clear
3:56 AM 69.1 °F 66.0 °F 90% 29.68 in 10.0 mi East 4.6 mph - N/A   Clear
4:56 AM 69.1 °F 66.9 °F 93% 29.66 in 10.0 mi ESE 6.9 mph - N/A   Mostly Cloudy
5:04 AM 69.1 °F 66.0 °F 90% 29.74 in 5.0 mi West 18.4 mph 28.8 mph 0.01 in Rain , Thunderstorm Rain
5:12 AM 66.9 °F 64.0 °F 90% 29.73 in 4.0 mi West 12.7 mph 27.6 mph 0.03 in Rain , Thunderstorm Thunderstorms and Rain
5:31 AM 66.9 °F 64.0 °F 90% 29.72 in 8.0 mi SW 6.9 mph - 0.05 in Rain , Thunderstorm Light Rain
5:56 AM 66.0 °F 64.0 °F 93% 29.70 in 8.0 mi South 5.8 mph - 0.07 in Rain Light Rain
6:32 AM 66.0 °F 64.0 °F 93% 29.76 in 6.0 mi South 12.7 mph - N/A Rain , Thunderstorm Rain
6:56 AM 64.9 °F 63.0 °F 93% 29.77 in 8.0 mi South 11.5 mph - N/A Rain , Thunderstorm Rain
7:03 AM 64.9 °F 63.0 °F 93% 29.80 in 5.0 mi South 12.7 mph - 0.00 in Rain , Thunderstorm Thunderstorms and Rain
7:18 AM 64.9 °F 62.1 °F 90% 29.74 in 5.0 mi South 19.6 mph 31.1 mph N/A Rain Rain
7:36 AM 66.0 °F 62.1 °F 87% 29.79 in 7.0 mi North - - N/A Rain Light Rain
7:56 AM 64.9 °F 62.1 °F 90% 29.67 in 9.0 mi SSE 17.3 mph 27.6 mph N/A Rain Light Rain
8:10 AM 64.9 °F 62.1 °F 90% 29.72 in 10.0 mi SW 12.7 mph 32.2 mph 0.00 in Rain Light Rain
8:56 AM 66.0 °F 62.1 °F 87% 29.73 in 10.0 mi Variable 6.9 mph - 0.02 in   Clear
9:56 AM 66.9 °F 63.0 °F 87% 29.75 in 10.0 mi West 11.5 mph - N/A   Partly Cloudy
10:56 AM 69.1 °F 63.0 °F 81% 29.74 in 10.0 mi West 16.1 mph 26.5 mph N/A   Clear
11:56 AM 72.0 °F 62.1 °F 71% 29.75 in 10.0 mi WNW 19.6 mph 28.8 mph N/A   Clear
12:56 PM 73.0 °F 62.1 °F 68% 29.78 in 10.0 mi WNW 19.6 mph - N/A   Scattered Clouds
1:56 PM 75.0 °F 63.0 °F 66% 29.79 in 10.0 mi WNW 12.7 mph - N/A   Scattered Clouds
2:56 PM 75.9 °F 63.0 °F 64% 29.80 in 10.0 mi NW 10.4 mph - N/A   Partly Cloudy
3:56 PM 79.0 °F 64.0 °F 60% 29.80 in 10.0 mi NW 8.1 mph - N/A   Clear
4:56 PM 79.0 °F 63.0 °F 58% 29.82 in 10.0 mi NW 5.8 mph - N/A   Mostly Cloudy
5:56 PM 77.0 °F 63.0 °F 62% 29.82 in 10.0 mi SSW 3.5 mph - N/A   Mostly Cloudy
6:56 PM 75.0 °F 64.0 °F 69% 29.83 in 10.0 mi WSW 3.5 mph - N/A   Mostly Cloudy
7:56 PM 72.0 °F 66.9 °F 84% 29.83 in 10.0 mi Calm Calm - N/A   Scattered Clouds
8:56 PM 66.9 °F 64.9 °F 93% 29.85 in 10.0 mi Calm Calm - N/A   Partly Cloudy
9:56 PM 66.9 °F 64.0 °F 90% 29.87 in 10.0 mi Calm Calm - N/A   Clear
10:56 PM 64.9 °F 64.0 °F 97% 29.89 in 10.0 mi Calm Calm - N/A   Partly Cloudy
11:56 PM 64.0 °F 62.1 °F 93% 29.90 in 10.0 mi Calm Calm - N/A   Clear